Location: Cañada de la Miga
(34.7595°N, 106.2317°W)
Time: 22:16:24
(UTC+00:00)

Transit 4A - Pass Details

Date: 05 December 2021
Orbit: 864 x 980 km, 66.8° (Epoch: 16 January)

Event Time Altitude Azimuth Distance (km) Brightness Sun altitude
Rises 12:01:41 0° 325° (NW) 3,637 - -23.2°
Reaches altitude 10° 12:04:20 10° 319° (NW) 2,702 - -22.7°
Exits shadow 12:09:19 40° 272° (W) 1,389 8.3 -21.7°
Maximum altitude 12:10:14 43° 250° (WSW) 1,340 8.3 -21.5°
Drops below altitude 10° 12:16:12 10° 181° (S) 2,721 10.5 -20.3°
Sets 12:18:53 0° 175° (S) 3,665 11.3 -19.8°
